Date String (YYYY-MM-DD hh:mm:ss) UTC,Instrument flags,Ambient pressure (hPa),Sample flow (lpm),Bypass flow (lpm),Sample temperature (°C),Ambient temperature (°C),ASC tube jacket temperature (°C),LED temperature (°C),Box temperature (°C),Sample RH (%),Span deviation,Mass concentration (μg/m³),Mass concentration (μg/m³),Mass concentration (μg/m³)
DateTimeUTC,F1_M11,P_M11,Q1_M11,Q2_M11,T1_M11,T2_M11,T3_M11,T4_M11,T5_M11,U1_M11,ZSPAN_M11,X0_M11,X2_M11,X1_M11
2021-12-22 04:00:00,,0822.6,5.02,0.00,24.4,23.5,00.0,33.5,26.0,03.5,0000.0,0003.29,0000.72,0000.47
2021-12-22 04:01:00,,0822.7,5.00,0.00,24.3,23.5,00.0,33.5,26.1,03.5,0000.0,0003.34,0000.75,0000.50
2021-12-22 04:02:00,,0822.6,5.00,0.00,24.3,23.5,00.0,33.4,26.0,03.5,0000.0,0003.46,0000.80,0000.52
2021-12-22 04:03:00,,0822.6,5.00,0.00,24.3,23.5,00.0,33.4,26.0,03.5,0000.0,0003.49,0000.82,0000.53
2021-12-22 04:04:00,,0822.7,4.98,0.00,24.3,23.5,00.0,33.4,26.0,03.5,0000.0,0003.46,0000.84,0000.56
2021-12-22 04:05:00,,0822.6,5.01,0.00,24.3,23.5,00.0,33.4,26.0,03.5,0000.0,0003.78,0000.86,0000.58
2021-12-22 04:06:00,,0822.7,5.00,0.00,24.3,23.5,00.0,33.4,26.0,03.4,0000.0,0004.78,0000.85,0000.59
2021-12-22 04:07:00,,0822.7,4.99,0.00,24.3,23.5,00.0,33.4,26.0,03.4,0000.0,0004.58,0000.81,0000.58
2021-12-22 04:08:00,,0822.6,5.00,0.00,24.3,23.5,00.0,33.4,26.0,03.5,0000.0,0004.55,0000.81,0000.58
2021-12-22 04:09:00,,0822.6,5.00,0.00,24.2,23.4,00.0,33.4,26.0,03.5,0000.0,0004.26,0000.79,0000.57
2021-12-22 04:10:00,,0822.6,4.98,0.00,24.3,23.4,00.0,33.3,26.0,03.5,0000.0,0002.54,0000.75,0000.57
2021-12-22 04:11:00,,0822.6,5.00,0.00,24.3,23.5,00.0,33.3,26.0,03.5,0000.0,0002.45,0000.75,0000.57
2021-12-22 04:12:00,,0822.7,4.99,0.00,24.3,23.5,00.0,33.3,26.0,03.5,0000.0,0002.55,0000.77,0000.57
2021-12-22 04:13:00,,0822.7,5.01,0.00,24.3,23.5,00.0,33.3,26.0,03.5,0000.0,0002.48,0000.74,0000.56
2021-12-22 04:14:00,,0822.7,4.99,0.00,24.3,23.5,00.0,33.3,26.0,03.5,0000.0,0002.91,0000.70,0000.55
2021-12-22 04:15:00,,0822.7,5.00,0.00,24.3,23.6,00.0,33.3,26.1,03.5,0000.0,0005.55,0000.71,0000.54
2021-12-22 04:16:00,,0822.7,5.00,0.00,24.3,23.6,00.0,33.3,26.1,03.5,0000.0,0006.22,0000.73,0000.53
2021-12-22 04:17:00,,0822.8,5.01,0.00,24.3,23.6,00.0,33.3,26.0,03.5,0000.0,0005.07,0000.74,0000.53
2021-12-22 04:18:00,,0822.8,5.00,0.00,24.3,23.6,00.0,33.3,26.0,03.5,0000.0,0005.33,0000.79,0000.54
2021-12-22 04:19:00,,0822.8,4.98,0.00,24.3,23.5,00.0,33.3,26.0,03.6,0000.0,0005.34,0000.79,0000.53
2021-12-22 04:20:00,,0822.7,5.01,0.00,24.2,23.5,00.0,33.3,25.9,03.6,0000.0,0005.36,0000.79,0000.54
2021-12-22 04:21:00,,0822.8,4.99,0.00,24.2,23.4,00.0,33.3,25.9,03.5,0000.0,0005.60,0000.86,0000.55
2021-12-22 04:22:00,,0822.8,5.00,0.00,24.2,23.4,00.0,33.3,25.8,03.5,0000.0,0005.85,0000.88,0000.55
2021-12-22 04:23:00,,0822.8,5.00,0.00,24.2,23.4,00.0,33.3,25.8,03.5,0000.0,0006.49,0000.89,0000.56
2021-12-22 04:24:00,,0822.8,5.00,0.00,24.1,23.3,00.0,33.3,25.7,03.5,0000.0,0006.47,0000.91,0000.57
2021-12-22 04:25:00,,0822.8,5.01,0.00,24.1,23.3,00.0,33.3,25.7,03.6,0000.0,0006.64,0001.00,0000.60
2021-12-22 04:26:00,,0822.7,5.01,0.00,24.1,23.3,00.0,33.2,25.7,03.6,0000.0,0004.08,0001.02,0000.61
2021-12-22 04:27:00,,0822.7,4.98,0.00,24.1,23.3,00.0,33.2,25.8,03.6,0000.0,0003.14,0001.02,0000.63
2021-12-22 04:28:00,,0822.7,5.01,0.00,24.1,23.3,00.0,33.2,25.8,03.6,0000.0,0003.08,0001.06,0000.65
2021-12-22 04:29:00,,0822.8,4.99,0.00,24.1,23.3,00.0,33.2,25.7,03.6,0000.0,0002.97,0001.05,0000.66
2021-12-22 04:30:00,,0822.8,5.00,0.00,24.0,23.2,00.0,33.2,25.7,03.6,0000.0,0002.93,0001.05,0000.67
2021-12-22 04:31:00,,0822.8,4.99,0.00,24.0,23.3,00.0,33.2,25.7,03.6,0000.0,0003.19,0001.05,0000.66
2021-12-22 04:32:00,,0822.8,5.01,0.00,24.1,23.3,00.0,33.2,25.8,03.6,0000.0,0003.10,0001.00,0000.65
2021-12-22 04:33:00,,0822.8,5.00,0.00,24.1,23.3,00.0,33.2,25.8,03.6,0000.0,0002.83,0000.97,0000.65
2021-12-22 04:34:00,,0822.8,4.99,0.00,24.1,23.3,00.0,33.2,25.8,03.6,0000.0,0002.16,0000.97,0000.65
2021-12-22 04:35:00,,0822.8,5.00,0.00,24.1,23.4,00.0,33.2,25.8,03.6,0000.0,0002.13,0000.95,0000.66
2021-12-22 04:36:00,,0822.8,5.00,0.00,24.1,23.4,00.0,33.2,25.9,03.6,0000.0,0001.84,0000.87,0000.65
2021-12-22 04:37:00,,0822.8,5.01,0.00,24.1,23.4,00.0,33.2,25.9,03.6,0000.0,0001.83,0000.88,0000.65
2021-12-22 04:38:00,,0822.8,5.01,0.00,24.1,23.4,00.0,33.2,25.9,03.6,0000.0,0001.82,0000.89,0000.64
2021-12-22 04:39:00,,0822.7,5.00,0.00,24.2,23.5,00.0,33.2,25.9,03.6,0000.0,0001.82,0000.89,0000.64
2021-12-22 04:40:00,,0822.7,4.99,0.00,24.2,23.5,00.0,33.2,26.0,03.5,0000.0,0001.76,0000.88,0000.63
2021-12-22 04:41:00,,0822.8,5.01,0.00,24.2,23.5,00.0,33.2,26.0,03.5,0000.0,0001.78,0000.89,0000.63
2021-12-22 04:42:00,,0822.8,5.00,0.00,24.2,23.5,00.0,33.2,26.0,03.5,0000.0,0001.58,0000.88,0000.62
2021-12-22 04:43:00,,0822.8,5.00,0.00,24.2,23.5,00.0,33.2,26.0,03.5,0000.0,0001.41,0000.87,0000.62
2021-12-22 04:44:00,,0822.8,5.00,0.00,24.2,23.6,00.0,33.2,26.0,03.5,0000.0,0001.40,0000.87,0000.62
2021-12-22 04:45:00,,0822.8,5.00,0.00,24.2,23.6,00.0,33.2,26.0,03.5,0000.0,0001.32,0000.83,0000.60
2021-12-22 04:46:00,,0822.8,4.99,0.00,24.2,23.6,00.0,33.2,26.0,03.5,0000.0,0001.30,0000.81,0000.58
2021-12-22 04:47:00,,0822.8,5.01,0.00,24.2,23.5,00.0,33.2,26.0,03.5,0000.0,0001.34,0000.81,0000.57
2021-12-22 04:48:00,,0822.9,4.99,0.00,24.2,23.5,00.0,33.2,25.9,03.5,0000.0,0001.35,0000.79,0000.56
2021-12-22 04:49:00,,0822.8,5.01,0.00,24.2,23.5,00.0,33.2,25.9,03.5,0000.0,0001.29,0000.78,0000.55
2021-12-22 04:50:00,,0822.7,4.99,0.00,24.2,23.4,00.0,33.2,25.9,03.5,0000.0,0001.25,0000.75,0000.53
2021-12-22 04:51:00,,0822.7,5.02,0.00,24.1,23.4,00.0,33.2,25.8,03.4,0000.0,0001.27,0000.75,0000.52
2021-12-22 04:52:00,,0822.7,4.99,0.00,24.1,23.4,00.0,33.2,25.8,03.3,0000.0,0001.16,0000.69,0000.49
2021-12-22 04:53:00,,0822.7,5.00,0.00,24.1,23.4,00.0,33.2,25.8,03.3,0000.0,0001.21,0000.68,0000.46
2021-12-22 04:54:00,,0822.7,5.00,0.00,24.1,23.4,00.0,33.2,25.8,03.3,0000.0,0001.26,0000.67,0000.43
2021-12-22 04:55:00,,0822.7,5.01,0.00,24.1,23.4,00.0,33.2,25.9,03.3,0000.0,0001.18,0000.62,0000.40
2021-12-22 04:56:00,,0822.6,5.00,0.00,24.2,23.4,00.0,33.2,25.9,03.2,0000.0,0001.14,0000.59,0000.38
2021-12-22 04:57:00,,0822.7,4.99,0.00,24.2,23.4,00.0,33.2,25.9,03.2,0000.0,0001.19,0000.59,0000.36
2021-12-22 04:58:00,,0822.6,5.01,0.00,24.2,23.4,00.0,33.2,25.9,03.2,0000.0,0001.16,0000.57,0000.34
2021-12-22 04:59:00,,0822.6,5.00,0.00,24.2,23.4,00.0,33.2,26.0,03.2,0000.0,0001.04,0000.53,0000.32
